Demopolis Municipal Airport, AL

10:41 AM CST on November 20, 2019 (GMT -0600)
Demopolis Municipal Airport

Weather History for KDYA - September, 2019

Change the Weather History Date:

Sunday, September 1, 2019

  Actual Average (KNMM) Record (KNMM)
Temperature  
Mean Temperature 80 °F -  
Max Temperature 90 °F 86 °F 100 °F (2016)
Min Temperature 70 °F 67 °F 64 °F (2004)
Cooling Degree Days 15    
Growing Degree Days 30 (Base 50)    
Moisture  
Dew Point 71 °F    
Average Humidity 78    
Maximum Humidity 100    
Minimum Humidity 50    
Precipitation  
Precipitation 0.00 in - - ()
Sea Level Pressure  
Sea Level Pressure 30.05 in    
Wind  
Wind Speed 2 mph ()    
Max Wind Speed 9 mph    
Max Gust Speed -    
Visibility 8.3 miles    
Events      
Averages and records for this station are not official NWS values.
T = Trace of Precipitation, MM = Missing Value Source: Averaged Metar Reports

Daily Weather History Graph

Daily Weather History Graph

Search for Another Location

Airport or City:

Astronomy

Sep. 01, 2019 Rise Set
Actual Time 6:26 AM CDT 7:16 PM CDT
Civil Twilight 6:01 AM CDT 7:41 PM CDT
Nautical Twilight 5:31 AM CDT 8:11 PM CDT
Astronomical Twilight 5:01 AM CDT 8:41 PM CDT
Moon 8:49 AM CDT (9/1) 9:12 PM CDT (9/1)
Length of Visible Light 13h 39m
Length of Day
12h 49m
Waxing Crescent, 8% of the Moon is Illuminated
Sep 1
Waxing Crescent
Sep 5
First Quarter
Sep 13
Full
Sep 21
Last Quarter
Sep 28
New

Hourly Weather History & Observations

Time (CDT) Temp. Heat Index Dew Point Humidity Pressure Visibility Wind Dir Wind Speed Gust Speed Precip Events Conditions
12:35 AM 75.4 °F - 69.8 °F 83% 30.05 in 7.0 mi Calm Calm - N/A   Clear
12:55 AM 74.7 °F - 69.8 °F 85% 30.04 in 10.0 mi Calm Calm - N/A   Clear
1:15 AM 73.4 °F - 70.0 °F 89% 30.04 in 7.0 mi Calm Calm - N/A   Clear
1:35 AM 72.5 °F - 70.0 °F 92% 30.04 in 7.0 mi Calm Calm - N/A   Clear
1:55 AM 71.1 °F - 69.3 °F 94% 30.04 in 7.0 mi Calm Calm - N/A   Clear
2:15 AM 70.9 °F - 69.4 °F 95% 30.05 in 7.0 mi Calm Calm - N/A   Clear
2:35 AM 71.8 °F - 70.7 °F 96% 30.05 in 7.0 mi Calm Calm - N/A   Mostly Cloudy
2:55 AM 72.1 °F - 70.7 °F 95% 30.05 in 7.0 mi Calm Calm - N/A   Overcast
3:15 AM 72.3 °F - 70.5 °F 94% 30.05 in 7.0 mi Calm Calm - N/A   Mostly Cloudy
3:35 AM 71.6 °F - 70.3 °F 96% 30.05 in 7.0 mi Calm Calm - N/A   Clear
3:55 AM 71.6 °F - 70.5 °F 96% 30.05 in 7.0 mi Calm Calm - N/A   Clear
4:15 AM 71.6 °F - 70.5 °F 96% 30.05 in 10.0 mi Calm Calm - N/A   Scattered Clouds
4:55 AM 70.9 °F - 70.5 °F 99% 30.05 in 7.0 mi Calm Calm - N/A   Clear
5:15 AM 70.3 °F - 70.2 °F 99% 30.05 in 7.0 mi Calm Calm - N/A   Clear
5:35 AM 70.5 °F - 70.5 °F 100% 30.06 in 7.0 mi Calm Calm - N/A   Clear
5:55 AM 70.7 °F - 70.7 °F 100% 30.06 in 7.0 mi Calm Calm - N/A   Clear
6:15 AM 70.3 °F - 70.3 °F 100% 30.06 in 7.0 mi Calm Calm - N/A   Clear
6:35 AM 70.2 °F - 70.2 °F 100% 30.07 in 7.0 mi Calm Calm - N/A   Clear
6:55 AM - - - N/A% 30.07 in 7.0 mi Calm Calm - N/A   Clear
7:15 AM - - - N/A% 30.09 in 7.0 mi Calm Calm - N/A   Clear
7:35 AM - - - N/A% 30.09 in 7.0 mi North 4.6 mph - N/A   Scattered Clouds
7:55 AM 71.8 °F - 71.8 °F 100% 30.10 in 7.0 mi Calm Calm - N/A   Clear
8:15 AM 73.4 °F - 72.1 °F 96% 30.10 in 7.0 mi North 3.5 mph - N/A   Scattered Clouds
8:35 AM 75.2 °F - 72.1 °F 90% 30.10 in 5.0 mi NE 3.5 mph - N/A   Mostly Cloudy
8:55 AM 76.5 °F - 72.0 °F 86% 30.10 in 7.0 mi East 5.8 mph - N/A   Overcast
9:15 AM 77.0 °F - 71.8 °F 84% 30.11 in 7.0 mi East 3.5 mph - N/A   Overcast
9:35 AM 77.5 °F - 71.6 °F 82% 30.10 in 7.0 mi East 6.9 mph - N/A   Overcast
9:55 AM 78.1 °F - 71.8 °F 81% 30.10 in 7.0 mi ENE 3.5 mph - N/A   Overcast
10:15 AM 78.6 °F - 71.8 °F 79% 30.11 in 7.0 mi ESE 5.8 mph - N/A   Overcast
10:35 AM 79.2 °F - 71.8 °F 78% 30.11 in 7.0 mi East 5.8 mph - N/A   Overcast
10:55 AM 79.5 °F - 71.8 °F 77% 30.10 in 7.0 mi East 5.8 mph - N/A   Overcast
11:15 AM 80.1 °F 83.7 °F 71.6 °F 75% 30.11 in 7.0 mi East 5.8 mph - N/A   Overcast
11:35 AM 81.1 °F 85.4 °F 71.8 °F 73% 30.11 in 7.0 mi East 5.8 mph - N/A   Overcast
11:55 AM 82.0 °F 86.5 °F 71.4 °F 70% 30.10 in 7.0 mi East 4.6 mph - N/A   Mostly Cloudy
12:15 PM 83.5 °F 88.8 °F 71.8 °F 68% 30.09 in 7.0 mi East 4.6 mph - N/A   Mostly Cloudy
12:35 PM 82.9 °F 88.0 °F 72.0 °F 69% 30.08 in 7.0 mi Calm Calm - N/A   Mostly Cloudy
12:55 PM 84.4 °F 89.7 °F 71.6 °F 65% 30.07 in 7.0 mi NE 4.6 mph - N/A   Mostly Cloudy
1:35 PM 87.6 °F 93.5 °F 71.1 °F 58% 30.06 in 10.0 mi North 5.8 mph - N/A   Mostly Cloudy
1:55 PM 85.5 °F 90.4 °F 70.5 °F 61% 30.05 in 10.0 mi North 6.9 mph - N/A   Scattered Clouds
2:15 PM 86.0 °F 91.5 °F 71.1 °F 61% 30.05 in 10.0 mi Calm Calm - N/A   Mostly Cloudy
2:35 PM 89.1 °F 94.6 °F 70.5 °F 54% 30.04 in 10.0 mi North 6.9 mph - N/A   Mostly Cloudy
2:55 PM 90.3 °F 96.2 °F 70.3 °F 52% 30.03 in 7.0 mi Calm Calm - N/A   Mostly Cloudy
3:15 PM 89.4 °F 95.3 °F 70.5 °F 54% 30.02 in 10.0 mi North 4.6 mph - N/A   Scattered Clouds
3:35 PM 89.1 °F 94.6 °F 70.5 °F 54% 30.02 in 10.0 mi NNE 4.6 mph - N/A   Scattered Clouds
3:55 PM 89.6 °F 94.7 °F 69.6 °F 52% 30.01 in 10.0 mi North 3.5 mph - N/A   Scattered Clouds
4:15 PM 90.1 °F 94.9 °F 69.4 °F 50% 30.01 in 10.0 mi ENE 4.6 mph - N/A   Scattered Clouds
4:35 PM 90.3 °F 95.7 °F 70.2 °F 51% 30.00 in 10.0 mi North 9.2 mph - N/A   Scattered Clouds
4:55 PM 89.8 °F 95.1 °F 69.8 °F 52% 30.00 in 10.0 mi NNW 3.5 mph - N/A   Clear
5:15 PM 89.8 °F 95.1 °F 70.0 °F 52% 30.00 in 10.0 mi NNW 3.5 mph - N/A   Clear
5:35 PM 90.0 °F 95.4 °F 70.3 °F 52% 30.00 in 10.0 mi NNE 5.8 mph - N/A   Clear
5:55 PM 89.6 °F 94.7 °F 69.6 °F 52% 30.00 in 10.0 mi North 5.8 mph - N/A   Clear
6:15 PM 89.1 °F 94.6 °F 70.7 °F 54% 30.00 in 10.0 mi Calm Calm - N/A   Clear
6:35 PM 88.2 °F 93.7 °F 70.9 °F 56% 30.00 in 10.0 mi NNE 3.5 mph - N/A   Scattered Clouds
6:55 PM 85.5 °F 91.5 °F 72.0 °F 64% 30.00 in 7.0 mi Calm Calm - N/A   Scattered Clouds
7:15 PM 83.8 °F 89.8 °F 72.7 °F 69% 30.00 in 10.0 mi Calm Calm - N/A   Clear
7:35 PM 81.9 °F 86.8 °F 72.3 °F 73% 30.01 in 10.0 mi ENE 9.2 mph - N/A   Mostly Cloudy
8:15 PM 80.1 °F 83.3 °F 70.2 °F 72% 30.02 in 10.0 mi East 4.6 mph - N/A   Scattered Clouds
8:35 PM 78.8 °F - 70.3 °F 75% 30.02 in 10.0 mi ESE 3.5 mph - N/A   Clear
8:55 PM 77.7 °F - 70.7 °F 79% 30.03 in 10.0 mi Calm Calm - N/A   Clear
9:15 PM 76.8 °F - 70.7 °F 81% 30.03 in 10.0 mi Calm Calm - N/A   Clear
9:35 PM 75.7 °F - 70.9 °F 85% 30.04 in 10.0 mi Calm Calm - N/A   Clear
9:55 PM 74.8 °F - 71.2 °F 88% 30.05 in 10.0 mi NNE 3.5 mph - N/A   Clear
10:15 PM 74.3 °F - 71.2 °F 90% 30.05 in 10.0 mi Calm Calm - N/A   Clear
10:35 PM 73.8 °F - 71.4 °F 92% 30.05 in 10.0 mi Calm Calm - N/A   Clear
10:55 PM 72.7 °F - 70.9 °F 94% 30.04 in 10.0 mi Calm Calm - N/A   Clear
11:15 PM 73.4 °F - 71.6 °F 94% 30.04 in 10.0 mi Calm Calm - N/A   Clear
11:35 PM 73.2 °F - 71.4 °F 94% 30.04 in 10.0 mi Calm Calm - N/A   Clear
11:55 PM 72.9 °F - 71.6 °F 96% 30.04 in 7.0 mi North 3.5 mph - N/A   Clear